Regional Weather Roundup
Issued by NWS

Home | Current Version | Previous Version | Text Only | Print | Product List | Glossary On
Versions: 1 2 3 4 5 6 7 8 9 10 11 12 13 14 15 16 17 18 19 20 21 22 23 24 25 26 27 28 29 30 31 32 33 34 35 36 37 38 39 40 41 42 43 44 45 46 47 48 49 50
000
ASUS43 KBIS 240110
RWRND
NORTH DAKOTA REGIONAL WEATHER ROUNDUP
NATIONAL WEATHER SERVICE EASTERN NORTH DAKOTA/GRAND FORKS ND
700 PM CST FRI FEB 23 2018

  NOTE: "FAIR" INDICATES FEW OR NO CLOUDS BELOW 12,000 FEET WITH NO
  SIGNIFICANT WEATHER AND/OR OBSTRUCTIONS TO VISIBILITY.

NDZ001>003-009>011-017-240200-
...NORTHWEST NORTH DAKOTA...

CITY           SKY/WX    TMP DP  RH WIND       PRES   REMARKS
WILLISTON      FAIR      11   1  64 S9        30.05F WCI  -2
MINOT          FAIR      11   4  73 S8        30.10F WCI  -1
MINOT AFB      FAIR       7   1  77 S5        30.09F WCI  -2
$$

NDZ018>021-031>035-040>046-240200-
...SOUTHWEST NORTH DAKOTA...

CITY           SKY/WX    TMP DP  RH WIND       PRES   REMARKS
BISMARCK       FAIR      13   5  70 CALM      30.19S
DICKINSON      FAIR       8  -2  63 S12       30.03F WCI  -7
GARRISON         N/A      5  -1  76 S5        30.11F WCI  -4
HETTINGER      FAIR       5  -3  69 S5        30.10S WCI  -4
$$

NDZ004>008-012>016-024-026-027-054-240200-
...NORTHEAST NORTH DAKOTA...

CITY           SKY/WX    TMP DP  RH WIND       PRES   REMARKS
GRAND FORKS    FAIR       7   2  80 SW8       30.23R WCI  -6
GRAND FORKS AF FAIR       8   2  78 SW6       30.22R WCI  -2
DEVILS LAKE    FAIR       9   4  80 SW10      30.17R WCI  -5
$$

NDZ022-023-025-028>030-036>039-047>053-240200-
...SOUTHEAST NORTH DAKOTA...

CITY           SKY/WX    TMP DP  RH WIND       PRES   REMARKS
JAMESTOWN      FAIR      10   5  80 S6        30.20R WCI   0
FARGO          FAIR       7   3  84 SW7       30.27R WCI  -5
WAHPETON       FAIR       1  -2  85 SW7       30.30R WCI -11
$$




USA.gov is the U.S. government's official web portal to all federal, state and local government web resources and services.